VU36VU-14 Weather Reports


time (UTC)temp
C
wind
direction
speed
KPH
gust
KPH
rain 1hr
cm
rain 24hr
cm
rain mn
cm
humidity
%
barometer
mb
20260505000747 28 214 16.1 29.0 0.00 1.37 0.00 56 1008.0
20260505000547 28 214 16.1 29.0 0.00 1.37 0.00 56 1008.0
20260505000350 28 214 16.1 29.0 0.00 1.37 0.00 68 1008.0
20260504235947 28 215 16.1 29.0 0.00 1.37 0.00 68 1008.0
20260504235747 28 215 16.1 29.0 0.00 1.37 0.00 68 1008.0
20260504235547 28 215 16.1 29.0 0.00 1.37 0.00 68 1008.0
20260504235347 28 215 16.1 29.0 0.00 1.37 0.00 68 1008.0
20260504235147 28 215 16.1 29.0 0.00 1.37 0.00 68 1008.0
20260504234947 28 215 16.1 29.0 0.00 1.37 0.00 68 1008.0
20260504234747 28 215 16.1 29.0 0.00 1.37 0.00 68 1008.0
20260504234547 28 215 16.1 29.0 0.00 1.37 0.00 68 1008.0
20260504234347 28 220 16.1 30.6 0.00 1.37 0.00 68 1008.0
20260504233946 28 220 16.1 30.6 0.00 1.37 0.00 68 1008.0
20260504233746 28 220 16.1 30.6 0.00 1.37 0.00 68 1008.0
20260504233547 28 220 16.1 30.6 0.00 1.37 0.00 68 1008.0
20260504233346 28 220 16.1 30.6 0.00 1.37 0.00 68 1008.0
20260504233146 28 220 16.1 30.6 0.00 1.37 0.00 68 1008.0
20260504232946 28 222 16.1 30.6 0.00 1.37 0.00 67 1008.0
20260504232746 28 222 16.1 30.6 0.00 1.37 0.00 67 1008.0
20260504232547 28 222 16.1 30.6 0.00 1.37 0.00 67 1008.0
20260504232346 28 222 16.1 30.6 0.00 1.37 0.00 67 1008.0
20260504232147 28 222 16.1 30.6 0.00 1.37 0.00 67 1008.0
20260504231747 28 222 16.1 30.6 0.00 1.37 0.00 67 1008.0
20260504231546 28 222 16.1 30.6 0.00 1.37 0.00 67 1008.0
20260504231346 29 225 16.1 29.0 0.00 1.37 0.00 66 1008.0
20260504231146 29 225 16.1 29.0 0.00 1.37 0.00 66 1008.0
20260504230947 29 225 16.1 29.0 0.00 1.37 0.00 66 1008.0
20260504230747 29 225 16.1 29.0 0.00 1.37 0.00 66 1008.0
20260504230547 29 225 16.1 29.0 0.00 1.37 0.00 66 1008.0
20260504230346 29 225 16.1 29.0 0.00 1.37 0.00 66 1008.0
20260504230146 29 225 16.1 29.0 0.00 1.37 0.00 66 1008.0
20260504225747 29 225 14.5 27.4 0.00 1.37 0.00 63 1008.0
20260504225547 29 225 14.5 27.4 0.00 1.37 0.00 63 1008.0
20260504225347 29 225 14.5 27.4 0.00 1.37 0.00 63 1008.0
20260504225147 29 225 14.5 27.4 0.00 1.37 0.00 63 1008.0
20260504224947 29 225 14.5 27.4 0.00 1.37 0.00 63 1008.0
20260504224747 29 225 14.5 27.4 0.00 1.37 0.00 63 1008.0
20260504224547 29 225 14.5 27.4 0.00 1.37 0.00 63 1008.0
20260504224347 29 223 11.3 24.1 0.00 1.37 0.00 59 1008.0
20260504224147 29 223 11.3 24.1 0.00 1.37 0.00 59 1008.0
20260504223947 29 223 11.3 24.1 0.00 1.37 0.00 59 1008.0
20260504223546 29 223 11.3 24.1 0.00 1.37 0.00 59 1008.0
20260504223351 29 223 11.3 24.1 0.00 1.37 0.00 59 1008.0
20260504223147 29 223 11.3 24.1 0.00 1.37 0.00 59 1008.0
20260504222947 30 225 9.7 20.9 0.00 1.37 0.00 55 1008.0
20260504222747 30 225 9.7 20.9 0.00 1.37 0.00 55 1008.0
20260504222547 30 225 9.7 20.9 0.00 1.37 0.00 55 1008.0
20260504222347 30 225 9.7 20.9 0.00 1.37 0.00 55 1008.0
20260504222146 30 225 9.7 20.9 0.00 1.37 0.00 55 1008.0
20260504221947 30 225 9.7 20.9 0.00 1.37 0.00 55 1008.0
20260504221747 30 225 9.7 20.9 0.00 1.37 0.00 55 1008.0
20260504221346 30 228 6.4 17.7 0.00 1.37 0.00 52 1008.0
20260504221146 30 228 6.4 17.7 0.00 1.37 0.00 52 1008.0
20260504220947 30 228 6.4 17.7 0.00 1.37 0.00 52 1008.0
20260504220747 30 228 6.4 17.7 0.00 1.37 0.00 52 1008.0
20260504220547 30 228 6.4 17.7 0.00 1.37 0.00 52 1008.0
20260504220347 30 228 6.4 17.7 0.00 1.37 0.00 52 1008.0
20260504220147 30 228 6.4 17.7 0.00 1.37 0.00 52 1008.0
20260504215947 30 249 3.2 17.7 0.00 1.37 0.00 51 1008.0
20260504215748 30 249 3.2 17.7 0.00 1.37 0.00 51 1008.0
20260504215547 30 249 3.2 17.7 0.00 1.37 0.00 51 1008.0
20260504215147 30 249 3.2 17.7 0.00 1.37 0.00 51 1008.0
20260504214947 30 249 3.2 17.7 0.00 1.37 0.00 51 1008.0
20260504214747 30 249 3.2 17.7 0.00 1.37 0.00 51 1008.0
20260504214547 30 249 3.2 17.7 0.00 1.37 0.00 51 1008.0
20260504214347 30 300 3.2 19.3 0.00 1.37 0.00 49 1007.0
20260504214147 30 300 3.2 19.3 0.00 1.37 0.00 49 1007.0
20260504212948 30 337 6.4 20.9 0.00 1.37 0.00 48 1007.0
20260504212547 30 337 6.4 20.9 0.00 1.37 0.00 48 1007.0
20260504212347 30 337 6.4 20.9 0.00 1.37 0.00 48 1007.0
20260504212147 30 337 6.4 20.9 0.00 1.37 0.00 48 1007.0
20260504211947 30 337 6.4 20.9 0.00 1.37 0.00 48 1007.0
20260504211746 30 337 6.4 20.9 0.00 1.37 0.00 48 1007.0
20260504211547 30 337 6.4 20.9 0.00 1.37 0.00 48 1007.0
20260504211348 30 347 9.7 20.9 0.00 1.37 0.00 47 1007.0
20260504211147 30 347 9.7 20.9 0.00 1.37 0.00 47 1007.0
20260504210947 30 347 9.7 20.9 0.00 1.37 0.00 47 1007.0
20260504210547 30 347 9.7 20.9 0.00 1.37 0.00 47 1007.0
20260504210347 30 347 9.7 20.9 0.00 1.37 0.00 47 1007.0
20260504210147 30 347 9.7 20.9 0.00 1.37 0.00 47 1007.0
20260504205947 31 351 9.7 20.9 0.00 1.37 0.00 46 1007.0
20260504205747 31 351 9.7 20.9 0.00 1.37 0.00 46 1007.0
20260504205547 31 351 9.7 20.9 0.00 1.37 0.00 46 1007.0
20260504205347 31 351 9.7 20.9 0.00 1.37 0.00 46 1007.0
20260504205147 31 351 9.7 20.9 0.00 1.37 0.00 46 1007.0
20260504204947 31 351 9.7 20.9 0.00 1.37 0.00 46 1007.0
20260504204747 31 351 9.7 20.9 0.00 1.37 0.00 46 1007.0
20260504204347 31 354 9.7 20.9 0.00 1.37 0.00 46 1007.0
20260504204147 31 354 9.7 20.9 0.00 1.37 0.00 46 1007.0
20260504203947 31 354 9.7 20.9 0.00 1.37 0.00 46 1007.0
20260504203747 31 354 9.7 20.9 0.00 1.37 0.00 46 1007.0
20260504203547 31 354 9.7 20.9 0.00 1.37 0.00 46 1007.0
20260504203347 31 354 9.7 20.9 0.00 1.37 0.00 46 1007.0
20260504203147 31 354 9.7 20.9 0.00 1.37 0.00 46 1007.0
20260504202947 31 357 9.7 19.3 0.00 1.37 0.00 45 1007.0
20260504202748 31 357 9.7 19.3 0.00 1.37 0.00 45 1007.0
20260504202547 31 357 9.7 19.3 0.00 1.37 0.00 45 1007.0
20260504202147 31 357 9.7 19.3 0.00 1.37 0.00 45 1007.0
20260504201947 31 357 9.7 19.3 0.00 1.37 0.00 45 1007.0
20260504201747 31 357 9.7 19.3 0.00 1.37 0.00 45 1007.0
20260504201547 31 357 9.7 19.3 0.00 1.37 0.00 45 1007.0
20260504201347 31 357 9.7 19.3 0.00 1.37 0.00 45 1008.0
20260504201147 31 357 9.7 19.3 0.00 1.37 0.00 45 1008.0
20260504200947 31 357 9.7 19.3 0.00 1.37 0.00 45 1008.0
20260504200749 31 357 9.7 19.3 0.00 1.37 0.00 45 1008.0
20260504200547 31 357 9.7 19.3 0.00 1.37 0.00 45 1008.0
20260504200147 31 357 9.7 19.3 0.00 1.37 0.00 45 1008.0
20260504195947 31 349 8.0 19.3 0.00 1.37 0.00 45 1008.0
20260504195747 31 4 8.0 19.3 0.00 1.37 0.00 45 1008.0
20260504195547 31 4 8.0 19.3 0.00 1.37 0.00 45 1008.0
20260504195347 31 4 8.0 19.3 0.00 1.37 0.00 45 1008.0
20260504195147 31 4 8.0 19.3 0.00 1.37 0.00 45 1008.0
20260504194947 31 4 8.0 19.3 0.00 1.37 0.00 45 1008.0
20260504194747 31 4 8.0 19.3 0.00 1.37 0.00 45 1008.0
20260504194547 31 4 8.0 19.3 0.00 1.37 0.00 45 1008.0
20260504194347 31 360 6.4 17.7 0.00 1.37 0.00 45 1008.0
20260504191347 28 9 3.2 9.7 0.00 1.37 0.00 53 1008.0
20260504191147 28 9 3.2 9.7 0.00 0.13 0.08 53 1009.0
20260504190947 28 9 3.2 9.7 0.00 0.13 0.08 65 1009.0
20260504190747 28 9 3.2 9.7 0.00 0.13 0.08 65 1009.0
20260504190547 28 9 3.2 9.7 0.00 0.13 0.08 65 1009.0
20260504190347 28 9 3.2 9.7 0.00 0.13 0.08 65 1009.0
20260504190147 28 9 3.2 9.7 0.00 0.13 0.08 65 1009.0
20260504185947 28 22 1.6 14.5 0.00 1.70 0.76 65 1009.0
20260504185747 28 22 1.6 14.5 0.00 1.70 0.76 65 1009.0
20260504185547 28 22 1.6 14.5 0.00 1.70 0.76 65 1009.0
20260504183152 27 51 3.2 17.7 0.00 1.70 0.76 66 1009.0
20260504182947 27 67 3.2 22.5 0.00 1.70 0.76 67 1010.0
20260504182747 27 67 3.2 22.5 0.00 1.70 0.76 67 1010.0
20260504182547 27 67 3.2 22.5 0.00 1.70 0.76 67 1010.0
20260504182346 27 67 3.2 22.5 0.00 1.70 0.76 67 1010.0
20260504182147 27 67 3.2 22.5 0.00 1.70 0.76 67 1010.0
20260504181947 27 67 3.2 22.5 0.00 1.70 0.76 67 1010.0
20260504181546 27 67 3.2 22.5 0.00 1.70 0.76 67 1010.0
20260504181347 27 84 4.8 27.4 0.00 1.70 0.76 68 1010.0
20260504181147 27 84 4.8 27.4 0.00 1.70 0.76 68 1010.0
20260504180946 27 84 4.8 27.4 0.00 1.70 0.76 68 1010.0
20260504180747 27 84 4.8 27.4 0.00 1.70 0.76 68 1010.0
20260504180547 27 84 4.8 27.4 0.00 1.70 0.76 68 1010.0
20260504180347 27 84 4.8 27.4 0.00 1.70 0.76 68 1010.0
20260504180148 27 84 4.8 27.4 0.00 1.70 0.76 68 1010.0
20260504175947 27 94 6.4 29.0 0.00 1.70 0.76 67 1010.0
20260504175649 27 94 6.4 29.0 0.00 1.70 0.76 67 1010.0
20260504175448 27 94 6.4 29.0 0.00 1.70 0.76 67 1010.0
20260504175248 27 94 6.4 29.0 0.00 1.70 0.76 67 1010.0
20260504175048 27 94 6.4 29.0 0.00 1.70 0.76 67 1010.0
20260504174849 27 94 6.4 29.0 0.00 1.70 0.76 67 1010.0
20260504174649 27 94 6.4 29.0 0.00 1.70 0.76 67 1010.0
20260504174449 27 100 9.7 30.6 0.00 1.70 0.76 67 1010.0
20260504174249 27 100 9.7 30.6 0.00 1.70 0.76 67 1010.0
20260504173709 27 100 9.7 30.6 0.00 1.70 0.76 67 1010.0
20260504173509 27 100 9.7 30.6 0.00 1.70 0.76 67 1010.0
20260504173309 27 100 9.7 30.6 0.00 1.70 0.76 67 1010.0
20260504173110 27 100 9.7 30.6 0.00 1.70 0.76 67 1010.0
20260504172731 27 103 11.3 32.2 0.00 1.70 0.76 66 1010.0
20260504172530 27 103 11.3 32.2 0.00 1.70 0.76 66 1010.0
20260504172331 27 103 11.3 32.2 0.00 1.70 0.76 66 1010.0
20260504172131 27 103 11.3 32.2 0.00 1.70 0.76 66 1010.0
20260504171731 27 103 11.3 32.2 0.00 1.70 0.76 66 1010.0
20260504171531 27 103 11.3 32.2 0.00 1.70 0.76 66 1010.0
20260504171331 27 103 14.5 37.0 0.00 1.70 0.76 66 1010.0
20260504171131 27 103 14.5 37.0 0.00 1.70 0.76 66 1010.0
20260504170931 27 103 14.5 37.0 0.00 1.70 0.76 66 1010.0
20260504170731 27 103 14.5 37.0 0.00 1.70 0.76 66 1010.0
20260504170531 27 103 14.5 37.0 0.00 1.70 0.76 66 1010.0
20260504170332 27 103 14.5 37.0 0.00 1.70 0.76 66 1010.0
20260504170131 27 103 14.5 37.0 0.00 1.70 0.76 66 1010.0
20260504160331 27 92 19.3 66.0 0.00 1.70 0.76 68 1010.0
20260504160131 27 92 19.3 66.0 0.00 1.70 0.76 68 1010.0
20260504150931 26 142 38.6 98.2 0.00 1.70 0.76 77 1009.0
20260504150731 26 142 38.6 98.2 0.00 1.70 0.76 77 1009.0
20260504150531 26 142 38.6 98.2 0.00 1.70 0.76 77 1009.0
20260504150331 26 142 38.6 98.2 0.00 1.70 0.76 77 1009.0
20260504150132 26 142 38.6 98.2 0.00 1.70 0.76 77 1009.0
20260504141331 24 145 54.7 144.8 0.15 1.70 0.76 88 1009.0
20260504141131 24 145 54.7 144.8 0.15 1.70 0.76 88 1009.0
20260504140931 24 145 54.7 144.8 0.15 1.70 0.76 88 1009.0
20260504140731 24 145 54.7 144.8 0.15 1.70 0.76 88 1009.0
20260504140436 24 145 54.7 144.8 0.15 1.70 0.76 88 1009.0
20260504140237 24 156 49.9 144.8 0.15 1.70 0.76 88 1009.0
20260504130636 30 120 49.9 122.3 0.00 1.70 0.76 51 1007.0
20260504130437 30 120 49.9 122.3 0.00 1.70 0.00 51 1007.0
20260504120237 32 249 70.8 149.7 0.00 1.55 0.00 47 1006.0
20260504110714 37 110 14.5 51.5 0.00 1.55 0.00 29 1004.0
20260504110200 37 110 14.5 51.5 0.00 1.55 0.00 29 1004.0
20260504100559 40 16 3.2 59.5 0.00 1.55 0.00 28 1003.0
20260504100400 40 16 3.2 59.5 0.00 1.55 0.00 28 1003.0
20260504100200 40 16 3.2 59.5 0.00 1.55 0.00 28 1003.0
20260504081859 39 183 9.7 59.5 0.00 1.55 0.00 30 1005.0
20260504081459 39 189 9.7 59.5 0.00 1.55 0.00 31 1005.0
20260504081259 39 191 8.0 59.5 0.00 1.55 0.00 31 1005.0
20260504081059 39 191 8.0 59.5 0.00 1.55 0.00 31 1005.0
20260504080859 39 191 8.0 59.5 0.00 1.55 0.00 31 1005.0
20260504080659 39 191 8.0 59.5 0.00 1.55 0.00 31 1005.0
20260504080459 39 191 8.0 59.5 0.00 1.55 0.00 31 1005.0
20260504080259 39 191 8.0 59.5 0.00 1.55 0.00 31 1005.0
20260504070259 38 253 6.4 61.2 0.00 0.36 1.37 32 1006.0
20260504060134 37 294 11.3 62.8 0.00 0.36 1.37 36 1008.0
20260504050647 35 288 16.1 62.8 0.00 0.36 1.37 42 1008.0
20260504050447 35 288 16.1 62.8 0.00 0.36 1.37 42 1008.0
20260504050247 35 288 16.1 62.8 0.00 0.36 1.37 42 1008.0
20260504045847 35 288 16.1 62.8 0.00 0.36 1.37 43 1008.0
20260504045647 35 288 16.1 62.8 0.00 0.36 1.37 43 1008.0
20260504045447 35 288 16.1 62.8 0.00 0.36 1.37 43 1008.0
20260504045247 35 288 16.1 62.8 0.00 0.36 1.37 43 1008.0
20260504045047 35 288 16.1 62.8 0.00 0.36 1.37 43 1008.0
20260504044647 35 288 16.1 62.8 0.00 0.36 1.37 43 1008.0
20260504044447 35 289 16.1 62.8 0.00 0.36 1.37 45 1009.0
20260504044247 35 289 16.1 62.8 0.00 0.36 1.37 45 1009.0
20260504044047 35 289 16.1 62.8 0.00 0.36 1.37 45 1009.0
20260504043847 35 289 16.1 62.8 0.00 0.36 1.37 45 1009.0
20260504043647 35 289 16.1 62.8 0.00 0.36 1.37 45 1009.0
20260504043447 35 289 16.1 62.8 0.00 0.36 1.37 45 1009.0
20260504043247 35 289 16.1 62.8 0.00 0.36 1.37 45 1009.0
20260504043047 35 289 16.1 62.8 0.00 0.36 1.37 45 1009.0
20260504042848 33 291 16.1 61.2 0.00 0.36 1.37 47 1009.0
20260504042447 33 291 16.1 61.2 0.00 0.36 1.37 47 1009.0
20260504042247 33 291 16.1 61.2 0.00 0.36 1.37 47 1009.0
20260504042047 33 291 16.1 61.2 0.00 0.36 1.37 47 1009.0
20260504041847 33 291 16.1 61.2 0.00 0.36 1.37 47 1009.0
20260504041647 33 291 16.1 61.2 0.00 0.36 1.37 47 1009.0
20260504041447 33 289 16.1 59.5 0.00 0.36 1.37 49 1009.0
20260504041247 33 289 16.1 59.5 0.00 0.36 1.37 49 1009.0
20260504041047 33 289 16.1 59.5 0.00 0.36 1.37 49 1009.0
20260504040847 33 289 16.1 59.5 0.00 0.36 1.37 49 1009.0
20260504040447 33 289 16.1 59.5 0.00 0.36 1.37 49 1009.0
20260504040247 33 289 16.1 59.5 0.00 0.36 1.37 49 1009.0
20260504040049 33 289 16.1 59.5 0.00 0.36 1.37 49 1009.0
20260504035847 33 286 16.1 57.9 0.00 0.36 1.37 51 1009.0
20260504035647 33 286 16.1 57.9 0.00 0.36 1.37 51 1009.0
20260504035447 33 286 16.1 57.9 0.00 0.36 1.37 51 1009.0
20260504035247 33 286 16.1 57.9 0.00 0.36 1.37 51 1009.0
20260504035047 33 286 16.1 57.9 0.00 0.36 1.37 51 1009.0
20260504034847 33 286 16.1 57.9 0.00 0.36 1.37 51 1009.0
20260504034648 33 286 16.1 57.9 0.00 0.36 1.37 51 1009.0
20260504034247 32 281 14.5 54.7 0.00 0.36 1.37 53 1009.0
20260504034047 32 281 14.5 54.7 0.00 0.36 1.37 53 1009.0
20260504033847 32 281 14.5 54.7 0.00 0.36 1.37 53 1009.0
20260504033647 32 281 14.5 54.7 0.00 0.36 1.37 53 1009.0
20260504033447 32 281 14.5 54.7 0.00 0.36 1.37 53 1009.0
20260504033247 32 281 14.5 54.7 0.00 0.36 1.37 53 1009.0
20260504033047 32 281 14.5 54.7 0.00 0.36 1.37 53 1009.0
20260504032847 32 275 12.9 49.9 0.00 0.36 1.37 55 1009.0
20260504032647 32 275 12.9 49.9 0.00 0.36 1.37 55 1009.0
20260504032247 32 275 12.9 49.9 0.00 0.36 1.37 55 1009.0
20260504032047 32 275 12.9 49.9 0.00 0.36 1.37 55 1009.0
20260504031847 32 275 12.9 49.9 0.00 0.36 1.37 55 1009.0
20260504031647 32 275 12.9 49.9 0.00 0.36 1.37 55 1009.0
20260504031447 31 270 11.3 46.7 0.00 0.36 1.37 58 1009.0
20260504031247 31 270 11.3 46.7 0.00 0.36 1.37 58 1009.0
20260504031047 31 270 11.3 46.7 0.00 0.36 1.37 58 1009.0
20260504030847 31 270 11.3 46.7 0.00 0.36 1.37 58 1009.0
20260504030647 31 270 11.3 46.7 0.00 0.36 1.37 58 1009.0
20260504030447 31 270 11.3 46.7 0.00 0.36 1.37 58 1009.0
20260504030049 31 270 11.3 46.7 0.00 0.36 1.37 58 1009.0
20260504025847 31 276 9.7 43.5 0.00 0.36 1.37 60 1009.0
20260504025647 31 276 9.7 43.5 0.00 0.36 1.37 60 1009.0
20260504025447 31 276 9.7 43.5 0.00 0.36 1.37 60 1009.0
20260504025247 31 276 9.7 43.5 0.00 0.36 1.37 60 1009.0
20260504025047 31 276 9.7 43.5 0.00 0.36 1.37 60 1009.0
20260504024847 31 276 9.7 43.5 0.00 0.36 1.37 60 1009.0
20260504024647 31 276 9.7 43.5 0.00 0.36 1.37 60 1009.0
20260504024447 30 283 9.7 41.8 0.00 0.36 1.37 62 1009.0
20260504024247 30 283 9.7 41.8 0.00 0.36 1.37 62 1009.0
20260504023847 30 283 9.7 41.8 0.00 0.36 1.37 62 1009.0
20260504023647 30 283 9.7 41.8 0.00 0.36 1.37 62 1009.0
20260504023447 30 283 9.7 41.8 0.00 0.36 1.37 62 1009.0
20260504023247 30 283 9.7 41.8 0.00 0.36 1.37 62 1009.0
20260504023047 30 283 9.7 41.8 0.00 0.36 1.37 62 1009.0
20260504022847 30 292 8.0 38.6 0.00 0.36 1.37 65 1008.0
20260504022647 30 292 8.0 38.6 0.00 0.36 1.37 65 1008.0
20260504022447 30 292 8.0 38.6 0.00 0.36 1.37 65 1008.0
20260504022247 30 292 8.0 38.6 0.00 0.36 1.37 65 1008.0
20260504022049 30 292 8.0 38.6 0.00 0.36 1.37 65 1008.0
20260504021651 30 292 8.0 38.6 0.00 0.36 1.37 65 1008.0
20260504021451 29 298 8.0 33.8 0.00 0.36 1.37 68 1008.0
20260504021251 29 298 8.0 33.8 0.00 0.36 1.37 68 1008.0
20260504021051 29 298 8.0 33.8 0.00 0.36 1.37 68 1008.0
20260504020852 29 298 8.0 33.8 0.00 0.36 1.37 68 1008.0
20260504020451 29 298 8.0 33.8 0.00 0.36 1.37 68 1008.0
20260504020251 29 298 8.0 33.8 0.00 0.36 1.37 68 1008.0
20260504020052 29 298 8.0 33.8 0.00 0.36 1.37 68 1008.0
20260504015851 28 297 6.4 29.0 0.00 0.36 1.37 68 1008.0
20260504015651 28 297 6.4 29.0 0.00 0.36 1.37 68 1008.0
20260504015451 28 297 6.4 29.0 0.00 0.36 1.37 68 1008.0
20260504015251 28 297 6.4 29.0 0.00 0.36 1.37 68 1008.0
20260504015051 28 297 6.4 29.0 0.00 0.36 1.37 68 1008.0
20260504014852 28 297 6.4 29.0 0.00 0.36 1.37 68 1008.0
20260504014451 28 288 6.4 19.3 0.00 0.36 1.37 70 1008.0
20260504014251 28 288 6.4 19.3 0.00 0.36 1.37 70 1008.0
20260504014051 28 288 6.4 19.3 0.00 0.36 1.37 70 1008.0
20260504013851 28 288 6.4 19.3 0.00 0.36 1.37 70 1008.0
20260504013651 28 288 6.4 19.3 0.00 0.36 1.37 70 1008.0
20260504013452 28 288 6.4 19.3 0.00 0.36 1.37 70 1008.0
20260504013251 28 288 6.4 19.3 0.00 0.36 1.37 70 1008.0
20260504013051 28 288 6.4 19.3 0.00 0.36 1.37 70 1008.0
20260504012851 28 280 4.8 11.3 0.00 0.36 1.37 71 1008.0
20260504012451 28 280 4.8 11.3 0.00 0.36 1.37 71 1008.0
20260504012256 28 280 4.8 11.3 0.00 0.36 1.37 71 1008.0
20260504012051 28 280 4.8 11.3 0.00 0.36 1.37 71 1008.0
20260504011851 28 280 4.8 11.3 0.00 0.36 1.37 71 1008.0
20260504011651 28 280 4.8 11.3 0.00 0.36 1.37 71 1008.0
20260504011451 28 270 4.8 6.4 0.00 0.36 1.37 72 1008.0
20260504011251 28 270 4.8 6.4 0.00 0.36 1.37 72 1008.0
20260504011051 28 270 4.8 6.4 0.00 0.36 1.37 72 1008.0
20260504010851 28 235 6.4 6.4 0.00 0.36 1.37 72 1008.0
20260504010651 28 235 6.4 6.4 0.00 0.36 1.37 72 1008.0
20260504010251 28 238 6.4 6.4 0.00 0.36 1.37 72 1008.0
20260504010052 28 238 6.4 6.4 0.00 0.36 1.37 72 1008.0
20260504005851 28 232 6.4 6.4 0.00 0.36 1.37 72 1008.0
20260504005651 28 232 6.4 14.5 0.00 0.36 1.37 72 1008.0
20260504005451 28 232 6.4 14.5 0.00 0.36 1.37 72 1008.0
20260504005251 28 232 6.4 14.5 0.00 0.36 1.37 72 1008.0
20260504005051 28 232 6.4 14.5 0.00 0.36 1.37 72 1008.0
20260504004851 28 232 6.4 14.5 0.00 0.36 1.37 72 1008.0
20260504004651 28 232 6.4 14.5 0.00 0.36 1.37 72 1008.0
20260504004452 28 225 4.8 14.5 0.00 0.36 1.37 72 1008.0
20260504004051 27 225 4.8 14.5 0.00 0.36 1.37 73 1008.0
20260504003852 27 225 4.8 14.5 0.00 0.36 1.37 73 1008.0
20260504003651 27 225 4.8 14.5 0.00 0.36 1.37 73 1008.0
20260504003451 27 225 4.8 14.5 0.00 0.36 1.37 73 1008.0
20260504003252 27 225 4.8 14.5 0.00 0.36 1.37 73 1008.0
20260504003051 27 225 4.8 14.5 0.00 0.36 1.37 73 1008.0
20260504002852 27 210 3.2 14.5 0.00 0.36 1.37 73 1007.0
20260504002651 27 210 3.2 14.5 0.00 0.36 1.37 73 1007.0
20260504002451 27 210 3.2 14.5 0.00 0.36 1.37 73 1007.0
20260504002051 27 210 3.2 14.5 0.00 0.36 1.37 73 1007.0
20260504001851 27 210 3.2 14.5 0.00 0.36 1.37 73 1007.0
20260504001651 27 210 3.2 14.5 0.00 0.36 1.37 73 1007.0
20260504001451 27 201 3.2 14.5 0.00 0.36 0.08 73 1007.0
20260504001251 27 201 3.2 14.5 0.00 0.36 0.08 73 1007.0
20260504001051 27 201 3.2 14.5 0.00 0.36 0.08 73 1007.0